Time,TemperatureF,DewpointF,PressureIn,WindDirection,WindDirectionDegrees,WindSpeedMPH,WindSpeedGustMPH,Humidity,HourlyPrecipIn,Conditions,Clouds,dailyrainin,SoftwareType,DateUTC
2013-02-05 00:04:00,44.1,23.0,30.05,South,180,0.0,-999.0,44,-99.99,,,0.00,weatherlink.com 1.10,2013-02-05 08:04:00,
2013-02-05 00:20:00,43.8,24.0,30.04,South,180,0.0,-999.0,45,-99.99,,,0.00,weatherlink.com 1.10,2013-02-05 08:20:00,
2013-02-05 00:35:00,42.6,23.0,30.04,South,180,0.0,-999.0,47,-99.99,,,0.00,weatherlink.com 1.10,2013-02-05 08:35:00,
2013-02-05 00:50:00,41.2,23.0,30.05,South,180,0.0,-999.0,49,-99.99,,,0.00,weatherlink.com 1.10,2013-02-05 08:50:00,
2013-02-05 01:05:00,40.8,23.0,30.05,South,180,0.0,-999.0,50,-99.99,,,0.00,weatherlink.com 1.10,2013-02-05 09:05:00,
2013-02-05 01:20:00,40.2,23.0,30.04,South,180,0.0,-999.0,51,-99.99,,,0.00,weatherlink.com 1.10,2013-02-05 09:20:00,
2013-02-05 01:35:00,39.3,23.0,30.04,South,180,0.0,-999.0,52,-99.99,,,0.00,weatherlink.com 1.10,2013-02-05 09:35:00,
2013-02-05 01:50:00,38.5,23.0,30.04,South,180,0.0,-999.0,53,-99.99,,,0.00,weatherlink.com 1.10,2013-02-05 09:50:00,
2013-02-05 02:05:00,38.0,23.0,30.04,South,182,0.0,-999.0,54,-99.99,,,0.00,weatherlink.com 1.10,2013-02-05 10:05:00,
2013-02-05 02:20:00,38.0,23.0,30.04,South,187,0.0,-999.0,55,-99.99,,,0.00,weatherlink.com 1.10,2013-02-05 10:20:00,
2013-02-05 02:35:00,38.3,23.0,30.04,South,187,0.0,-999.0,54,-99.99,,,0.00,weatherlink.com 1.10,2013-02-05 10:35:00,
2013-02-05 02:50:00,37.8,23.0,30.03,South,187,0.0,-999.0,55,-99.99,,,0.00,weatherlink.com 1.10,2013-02-05 10:50:00,
2013-02-05 03:06:00,37.2,23.0,30.03,South,190,4.0,-999.0,56,-99.99,,,0.00,weatherlink.com 1.10,2013-02-05 11:06:00,
2013-02-05 03:21:00,36.3,22.0,30.02,SSW,193,0.0,-999.0,57,-99.99,,,0.00,weatherlink.com 1.10,2013-02-05 11:21:00,
2013-02-05 03:36:00,36.0,22.0,30.02,SSW,193,0.0,-999.0,58,-99.99,,,0.00,weatherlink.com 1.10,2013-02-05 11:36:00,
2013-02-05 03:51:00,36.0,22.0,30.02,SSW,193,0.0,-999.0,58,-99.99,,,0.00,weatherlink.com 1.10,2013-02-05 11:51:00,
2013-02-05 04:06:00,35.9,22.0,30.02,SSW,194,0.0,-999.0,58,-99.99,,,0.00,weatherlink.com 1.10,2013-02-05 12:06:00,
2013-02-05 04:21:00,35.5,22.0,30.03,SSW,194,0.0,-999.0,59,-99.99,,,0.00,weatherlink.com 1.10,2013-02-05 12:21:00,
2013-02-05 04:36:00,35.0,23.0,30.03,SSW,194,0.0,-999.0,61,-99.99,,,0.00,weatherlink.com 1.10,2013-02-05 12:36:00,
2013-02-05 04:51:00,34.7,22.0,30.03,SSW,194,0.0,-999.0,61,-99.99,,,0.00,weatherlink.com 1.10,2013-02-05 12:51:00,
2013-02-05 05:06:00,34.7,22.0,30.02,SSW,194,0.0,-999.0,61,-99.99,,,0.00,weatherlink.com 1.10,2013-02-05 13:06:00,
2013-02-05 05:21:00,35.0,23.0,30.03,SSW,194,0.0,-999.0,61,-99.99,,,0.00,weatherlink.com 1.10,2013-02-05 13:21:00,
2013-02-05 05:36:00,35.6,23.0,30.03,SSW,194,0.0,-999.0,60,-99.99,,,0.00,weatherlink.com 1.10,2013-02-05 13:36:00,
2013-02-05 05:51:00,35.3,22.0,30.03,SSW,194,0.0,-999.0,59,-99.99,,,0.00,weatherlink.com 1.10,2013-02-05 13:51:00,
2013-02-05 06:06:00,34.4,22.0,30.03,SSW,194,0.0,-999.0,60,-99.99,,,0.00,weatherlink.com 1.10,2013-02-05 14:06:00,
2013-02-05 06:22:00,34.3,22.0,30.05,SSW,194,0.0,-999.0,61,-99.99,,,0.00,weatherlink.com 1.10,2013-02-05 14:22:00,
2013-02-05 06:37:00,34.7,22.0,30.05,SSW,194,0.0,-999.0,61,-99.99,,,0.00,weatherlink.com 1.10,2013-02-05 14:37:00,
2013-02-05 06:52:00,34.7,22.0,30.06,SSW,194,0.0,-999.0,60,-99.99,,,0.00,weatherlink.com 1.10,2013-02-05 14:52:00,
2013-02-05 07:07:00,34.3,22.0,30.07,SSW,194,0.0,-999.0,60,-99.99,,,0.00,weatherlink.com 1.10,2013-02-05 15:07:00,
2013-02-05 07:22:00,34.4,22.0,30.08,SSW,194,0.0,-999.0,61,-99.99,,,0.00,weatherlink.com 1.10,2013-02-05 15:22:00,
2013-02-05 07:37:00,35.6,23.0,30.09,SSW,194,0.0,-999.0,61,-99.99,,,0.00,weatherlink.com 1.10,2013-02-05 15:37:00,
2013-02-05 07:52:00,38.2,24.0,30.08,SSW,194,0.0,-999.0,57,-99.99,,,0.00,weatherlink.com 1.10,2013-02-05 15:52:00,
2013-02-05 08:07:00,40.2,24.0,30.08,SSW,194,0.0,-999.0,52,-99.99,,,0.00,weatherlink.com 1.10,2013-02-05 16:07:00,
2013-02-05 08:22:00,42.3,24.0,30.08,SSW,194,0.0,-999.0,48,-99.99,,,0.00,weatherlink.com 1.10,2013-02-05 16:22:00,
2013-02-05 08:37:00,44.3,24.0,30.08,SSW,194,0.0,-999.0,45,-99.99,,,0.00,weatherlink.com 1.10,2013-02-05 16:37:00,
2013-02-05 08:52:00,47.0,24.0,30.07,SSW,194,0.0,-999.0,41,-99.99,,,0.00,weatherlink.com 1.10,2013-02-05 16:52:00,
2013-02-05 09:08:00,49.8,24.0,30.07,SSW,194,0.0,-999.0,37,-99.99,,,0.00,weatherlink.com 1.10,2013-02-05 17:08:00,
2013-02-05 09:23:00,52.5,25.0,30.06,SSW,194,0.0,-999.0,34,-99.99,,,0.00,weatherlink.com 1.10,2013-02-05 17:23:00,
2013-02-05 09:38:00,54.4,24.0,30.06,SSW,194,0.0,-999.0,31,-99.99,,,0.00,weatherlink.com 1.10,2013-02-05 17:38:00,
2013-02-05 09:54:00,56.9,24.0,30.06,SSW,194,0.0,-999.0,28,-99.99,,,0.00,weatherlink.com 1.10,2013-02-05 17:54:00,
2013-02-05 10:08:00,59.5,24.0,30.05,SSW,194,0.0,-999.0,26,-99.99,,,0.00,weatherlink.com 1.10,2013-02-05 18:08:00,
2013-02-05 10:23:00,61.2,23.0,30.04,SSW,194,0.0,-999.0,23,-99.99,,,0.00,weatherlink.com 1.10,2013-02-05 18:23:00,
2013-02-05 10:38:00,61.8,23.0,30.03,SSW,192,1.0,-999.0,23,-99.99,,,0.00,weatherlink.com 1.10,2013-02-05 18:38:00,
2013-02-05 10:53:00,63.2,24.0,30.01,SSW,192,4.0,-999.0,22,-99.99,,,0.00,weatherlink.com 1.10,2013-02-05 18:53:00,
2013-02-05 11:09:00,65.0,24.0,30.00,SSW,192,2.0,-999.0,21,-99.99,,,0.00,weatherlink.com 1.10,2013-02-05 19:09:00,
2013-02-05 11:24:00,66.9,23.0,30.00,SSW,192,5.0,-999.0,19,-99.99,,,0.00,weatherlink.com 1.10,2013-02-05 19:24:00,
2013-02-05 11:39:00,68.1,24.0,29.99,SSW,192,0.0,-999.0,19,-99.99,,,0.00,weatherlink.com 1.10,2013-02-05 19:39:00,
2013-02-05 11:54:00,68.8,22.0,29.97,South,189,5.0,-999.0,17,-99.99,,,0.00,weatherlink.com 1.10,2013-02-05 19:54:00,
2013-02-05 12:09:00,70.4,23.0,29.96,South,173,3.0,-999.0,17,-99.99,,,0.00,weatherlink.com 1.10,2013-02-05 20:09:00,
2013-02-05 12:24:00,70.4,23.0,29.95,SSE,149,0.0,-999.0,17,-99.99,,,0.00,weatherlink.com 1.10,2013-02-05 20:24:00,
2013-02-05 12:39:00,70.6,22.0,29.94,ESE,121,3.0,-999.0,16,-99.99,,,0.00,weatherlink.com 1.10,2013-02-05 20:39:00,
2013-02-05 12:54:00,71.1,24.0,29.93,SSE,167,3.0,-999.0,17,-99.99,,,0.00,weatherlink.com 1.10,2013-02-05 20:54:00,
2013-02-05 13:09:00,71.6,24.0,29.92,South,180,14.0,-999.0,17,-99.99,,,0.00,weatherlink.com 1.10,2013-02-05 21:09:00,
2013-02-05 13:25:00,71.5,24.0,29.92,South,180,16.0,-999.0,17,-99.99,,,0.00,weatherlink.com 1.10,2013-02-05 21:25:00,
2013-02-05 13:40:00,70.8,26.0,29.91,SSW,200,16.0,-999.0,19,-99.99,,,0.00,weatherlink.com 1.10,2013-02-05 21:40:00,
2013-02-05 13:55:00,67.8,27.0,29.91,South,179,18.0,-999.0,22,-99.99,,,0.00,weatherlink.com 1.10,2013-02-05 21:55:00,
2013-02-05 14:09:00,67.1,29.0,29.92,South,178,20.0,-999.0,24,-99.99,,,0.00,weatherlink.com 1.10,2013-02-05 22:09:00,
2013-02-05 14:24:00,68.9,27.0,29.91,SSW,203,28.0,-999.0,21,-99.99,,,0.00,weatherlink.com 1.10,2013-02-05 22:24:00,
2013-02-05 14:39:00,70.9,16.0,29.89,SSW,211,19.0,-999.0,12,-99.99,,,0.00,weatherlink.com 1.10,2013-02-05 22:39:00,
2013-02-05 14:54:00,73.2,15.0,29.89,West,263,10.0,-999.0,11,-99.99,,,0.00,weatherlink.com 1.10,2013-02-05 22:54:00,
2013-02-05 15:09:00,73.3,18.0,29.89,West,270,16.0,-999.0,12,-99.99,,,0.00,weatherlink.com 1.10,2013-02-05 23:09:00,
2013-02-05 15:24:00,73.0,17.0,29.89,WSW,256,13.0,-999.0,12,-99.99,,,0.00,weatherlink.com 1.10,2013-02-05 23:24:00,
2013-02-05 15:40:00,70.9,18.0,29.90,WSW,252,9.0,-999.0,13,-99.99,,,0.00,weatherlink.com 1.10,2013-02-05 23:40:00,
2013-02-05 15:55:00,70.1,19.0,29.91,SW,234,10.0,-999.0,14,-99.99,,,0.00,weatherlink.com 1.10,2013-02-05 23:55:00,
2013-02-05 16:10:00,69.9,18.0,29.91,WSW,246,6.0,-999.0,14,-99.99,,,0.00,weatherlink.com 1.10,2013-02-06 00:10:00,
2013-02-05 16:25:00,69.6,20.0,29.92,SW,217,11.0,-999.0,15,-99.99,,,0.00,weatherlink.com 1.10,2013-02-06 00:25:00,
2013-02-05 16:40:00,67.6,24.0,29.92,West,265,11.0,-999.0,19,-99.99,,,0.00,weatherlink.com 1.10,2013-02-06 00:40:00,
2013-02-05 16:55:00,65.3,25.0,29.93,SW,236,9.0,-999.0,22,-99.99,,,0.00,weatherlink.com 1.10,2013-02-06 00:55:00,
2013-02-05 17:10:00,62.1,28.0,29.94,WSW,244,12.0,-999.0,27,-99.99,,,0.00,weatherlink.com 1.10,2013-02-06 01:10:00,
2013-02-05 17:25:00,61.2,28.0,29.96,WSW,240,7.0,-999.0,28,-99.99,,,0.00,weatherlink.com 1.10,2013-02-06 01:25:00,
2013-02-05 17:40:00,59.9,31.0,29.96,WSW,240,7.0,-999.0,34,-99.99,,,0.00,weatherlink.com 1.10,2013-02-06 01:40:00,
2013-02-05 17:56:00,58.3,34.0,29.97,WSW,244,9.0,-999.0,40,-99.99,,,0.00,weatherlink.com 1.10,2013-02-06 01:56:00,
2013-02-05 18:10:00,56.7,36.0,29.98,SW,230,7.0,-999.0,47,-99.99,,,0.00,weatherlink.com 1.10,2013-02-06 02:10:00,
2013-02-05 18:25:00,55.9,37.0,29.98,SW,232,7.0,-999.0,50,-99.99,,,0.00,weatherlink.com 1.10,2013-02-06 02:25:00,
2013-02-05 18:41:00,55.6,37.0,29.98,WSW,237,6.0,-999.0,50,-99.99,,,0.00,weatherlink.com 1.10,2013-02-06 02:41:00,
2013-02-05 18:56:00,55.6,37.0,29.99,WSW,245,13.0,-999.0,49,-99.99,,,0.00,weatherlink.com 1.10,2013-02-06 02:56:00,
2013-02-05 19:11:00,55.3,37.0,29.99,SSW,207,14.0,-999.0,51,-99.99,,,0.00,weatherlink.com 1.10,2013-02-06 03:11:00,
2013-02-05 19:26:00,55.4,37.0,29.98,SSW,194,3.0,-999.0,51,-99.99,,,0.00,weatherlink.com 1.10,2013-02-06 03:26:00,
2013-02-05 19:41:00,55.4,36.0,29.98,SSW,194,0.0,-999.0,49,-99.99,,,0.00,weatherlink.com 1.10,2013-02-06 03:41:00,
2013-02-05 19:56:00,55.6,35.0,29.98,SSW,194,0.0,-999.0,47,-99.99,,,0.00,weatherlink.com 1.10,2013-02-06 03:56:00,
2013-02-05 20:11:00,55.3,39.0,29.98,WSW,250,9.0,-999.0,55,-99.99,,,0.00,weatherlink.com 1.10,2013-02-06 04:11:00,
2013-02-05 20:26:00,54.5,40.0,29.96,WSW,249,11.0,-999.0,58,-99.99,,,0.00,weatherlink.com 1.10,2013-02-06 04:26:00,
2013-02-05 20:41:00,54.4,39.0,29.96,SW,219,0.0,-999.0,56,-99.99,,,0.00,weatherlink.com 1.10,2013-02-06 04:41:00,
2013-02-05 20:56:00,54.4,38.0,29.96,SW,219,0.0,-999.0,55,-99.99,,,0.00,weatherlink.com 1.10,2013-02-06 04:56:00,
2013-02-05 21:11:00,54.1,38.0,29.96,SW,215,0.0,-999.0,55,-99.99,,,0.00,weatherlink.com 1.10,2013-02-06 05:11:00,
2013-02-05 21:26:00,54.4,39.0,29.95,SW,231,10.0,-999.0,57,-99.99,,,0.00,weatherlink.com 1.10,2013-02-06 05:26:00,
2013-02-05 21:41:00,53.2,40.0,29.95,SW,235,16.0,-999.0,62,-99.99,,,0.00,weatherlink.com 1.10,2013-02-06 05:41:00,
2013-02-05 21:56:00,52.5,41.0,29.95,WSW,238,11.0,-999.0,64,-99.99,,,0.00,weatherlink.com 1.10,2013-02-06 05:56:00,
2013-02-05 22:12:00,51.6,42.0,29.96,SW,230,3.0,-999.0,69,-99.99,,,0.00,weatherlink.com 1.10,2013-02-06 06:12:00,
2013-02-05 22:27:00,51.0,42.0,29.96,WSW,245,25.0,-999.0,70,-99.99,,,0.00,weatherlink.com 1.10,2013-02-06 06:27:00,
2013-02-05 22:42:00,48.6,42.0,29.96,WSW,255,9.0,-999.0,77,-99.99,,,0.00,weatherlink.com 1.10,2013-02-06 06:42:00,
2013-02-05 22:57:00,47.6,41.0,29.96,SW,221,11.0,-999.0,79,-99.99,,,0.00,weatherlink.com 1.10,2013-02-06 06:57:00,
2013-02-05 23:12:00,46.5,42.0,29.97,SW,226,14.0,-999.0,83,-99.99,,,0.00,weatherlink.com 1.10,2013-02-06 07:12:00,
2013-02-05 23:27:00,46.2,41.0,29.96,WSW,252,15.0,-999.0,83,-99.99,,,0.00,weatherlink.com 1.10,2013-02-06 07:27:00,
2013-02-05 23:42:00,46.2,41.0,29.95,WSW,240,11.0,-999.0,83,-99.99,,,0.00,weatherlink.com 1.10,2013-02-06 07:42:00,
2013-02-05 23:57:00,46.0,41.0,29.96,SW,234,5.0,-999.0,83,-99.99,,,0.00,weatherlink.com 1.10,2013-02-06 07:57:00,